Time,TemperatureF,DewpointF,PressureIn,WindDirection,WindDirectionDegrees,WindSpeedMPH,WindSpeedGustMPH,Humidity,HourlyPrecipIn,Conditions,Clouds,dailyrainin,SoftwareType,DateUTC
2014-04-20 00:00:00,61.1,60.5,30.02,NE,40,0.0,6.0,98,0.00,RA,,0.00,WeatherDisplay:10.37,2014-04-20 04:00:00,
2014-04-20 00:15:00,61.0,60.1,30.01,NNW,327,0.0,5.0,97,0.00,CLR,,0.00,WeatherDisplay:10.37,2014-04-20 04:15:00,
2014-04-20 00:30:00,60.8,59.9,30.01,SE,136,0.0,3.0,97,0.00,CLR,,0.00,WeatherDisplay:10.37,2014-04-20 04:30:00,
2014-04-20 00:45:00,60.7,59.8,30.01,SE,142,0.0,1.0,97,0.00,CLR,,0.00,WeatherDisplay:10.37,2014-04-20 04:45:00,
2014-04-20 01:00:00,60.7,59.8,30.01,SE,142,0.0,2.0,97,0.00,CLR,,0.00,WeatherDisplay:10.37,2014-04-20 05:00:00,
2014-04-20 01:15:00,60.5,59.6,30.02,West,269,0.0,4.0,97,0.00,CLR,,0.00,WeatherDisplay:10.37,2014-04-20 05:15:00,
2014-04-20 01:30:00,60.3,59.5,30.02,West,270,1.0,3.0,97,0.00,CLR,,0.00,WeatherDisplay:10.37,2014-04-20 05:30:00,
2014-04-20 01:45:00,60.2,59.3,30.02,NW,325,0.0,6.0,97,0.00,CLR,,0.00,WeatherDisplay:10.37,2014-04-20 05:45:00,
2014-04-20 02:00:00,60.1,59.2,30.02,West,268,1.0,5.0,97,0.00,CLR,,0.00,WeatherDisplay:10.37,2014-04-20 06:00:00,
2014-04-20 02:15:00,59.9,59.0,30.02,West,269,0.0,5.0,97,0.00,CLR,,0.00,WeatherDisplay:10.37,2014-04-20 06:15:00,
2014-04-20 02:30:00,59.8,58.9,30.02,WSW,251,1.0,4.0,97,0.00,CLR,,0.00,WeatherDisplay:10.37,2014-04-20 06:30:00,
2014-04-20 02:45:00,59.9,59.0,30.01,WNW,295,0.0,4.0,97,0.00,CLR,,0.00,WeatherDisplay:10.37,2014-04-20 06:45:00,
2014-04-20 03:00:00,59.7,58.8,30.01,West,280,1.0,4.0,97,0.00,CLR,,0.00,WeatherDisplay:10.37,2014-04-20 07:00:00,
2014-04-20 03:15:00,59.4,58.5,30.01,North,360,2.0,7.0,97,0.00,CLR,,0.00,WeatherDisplay:10.37,2014-04-20 07:15:00,
2014-04-20 03:30:00,59.3,58.4,30.00,NW,309,1.0,6.0,97,0.00,CLR,,0.00,WeatherDisplay:10.37,2014-04-20 07:30:00,
2014-04-20 03:45:00,59.3,58.4,30.01,ENE,62,2.0,7.0,97,0.00,CLR,,0.00,WeatherDisplay:10.37,2014-04-20 07:45:00,
2014-04-20 04:01:00,59.2,58.3,30.01,SW,221,0.0,4.0,97,0.00,CLR,,0.00,WeatherDisplay:10.37,2014-04-20 08:01:00,
2014-04-20 04:15:00,59.1,58.2,30.01,NNE,24,2.0,7.0,97,0.00,CLR,,0.00,WeatherDisplay:10.37,2014-04-20 08:15:00,
2014-04-20 04:30:00,58.8,57.7,30.02,NNW,348,1.0,5.0,96,0.00,CLR,,0.00,WeatherDisplay:10.37,2014-04-20 08:30:00,
2014-04-20 04:45:00,58.7,57.6,30.02,ENE,57,0.0,6.0,96,0.00,CLR,,0.00,WeatherDisplay:10.37,2014-04-20 08:45:00,
2014-04-20 05:00:00,58.5,57.4,30.02,ENE,69,1.0,5.0,96,0.00,CLR,,0.00,WeatherDisplay:10.37,2014-04-20 09:00:00,
2014-04-20 05:15:00,58.2,56.8,30.03,NE,50,1.0,7.0,95,0.00,CLR,,0.00,WeatherDisplay:10.37,2014-04-20 09:15:00,
2014-04-20 05:30:00,58.0,56.9,30.04,North,352,0.0,4.0,96,0.00,CLR,,0.00,WeatherDisplay:10.37,2014-04-20 09:30:00,
2014-04-20 05:45:00,57.8,56.7,30.04,NW,306,0.0,6.0,96,0.00,CLR,,0.00,WeatherDisplay:10.37,2014-04-20 09:45:00,
2014-04-20 06:00:00,57.5,56.7,30.05,WSW,248,0.0,5.0,97,0.00,CLR,,0.00,WeatherDisplay:10.37,2014-04-20 10:00:00,
2014-04-20 06:15:00,57.3,56.5,30.05,WSW,243,2.0,3.0,97,0.00,CLR,,0.00,WeatherDisplay:10.37,2014-04-20 10:15:00,
2014-04-20 06:30:00,57.2,56.3,30.06,WSW,253,0.0,5.0,97,0.00,CLR,,0.00,WeatherDisplay:10.37,2014-04-20 10:30:00,
2014-04-20 06:45:00,57.0,56.2,30.06,WSW,253,0.0,2.0,97,0.00,CLR,,0.00,WeatherDisplay:10.37,2014-04-20 10:45:00,
2014-04-20 07:00:00,56.9,56.1,30.06,NE,54,0.0,5.0,97,0.01,RA,,0.01,WeatherDisplay:10.37,2014-04-20 11:00:00,
2014-04-20 07:15:00,56.8,56.0,30.07,NNE,18,0.0,3.0,97,0.00,CLR,,0.01,WeatherDisplay:10.37,2014-04-20 11:15:00,
2014-04-20 07:30:00,56.8,56.0,30.07,North,11,0.0,2.0,97,0.00,CLR,,0.01,WeatherDisplay:10.37,2014-04-20 11:30:00,
2014-04-20 07:45:00,57.0,56.4,30.08,NNE,24,0.0,4.0,98,0.00,CLR,,0.01,WeatherDisplay:10.37,2014-04-20 11:45:00,
2014-04-20 08:00:00,57.0,56.4,30.09,North,354,2.0,6.0,98,0.00,CLR,,0.01,WeatherDisplay:10.37,2014-04-20 12:00:00,
2014-04-20 08:15:00,56.5,55.7,30.09,West,278,0.0,7.0,97,0.00,CLR,,0.01,WeatherDisplay:10.37,2014-04-20 12:15:00,
2014-04-20 08:30:00,56.5,55.7,30.10,NNW,330,1.0,5.0,97,0.00,CLR,,0.01,WeatherDisplay:10.37,2014-04-20 12:30:00,
2014-04-20 08:45:00,56.5,55.7,30.10,NNE,33,0.0,6.0,97,0.00,CLR,,0.01,WeatherDisplay:10.37,2014-04-20 12:45:00,
2014-04-20 09:00:00,57.1,56.2,30.11,NE,46,1.0,7.0,97,0.00,CLR,,0.01,WeatherDisplay:10.37,2014-04-20 13:00:00,
2014-04-20 09:15:00,57.1,55.7,30.11,NW,326,0.0,7.0,95,0.00,CLR,,0.01,WeatherDisplay:10.37,2014-04-20 13:15:00,
2014-04-20 09:30:00,57.2,55.5,30.12,North,358,2.0,7.0,94,0.00,CLR,,0.01,WeatherDisplay:10.37,2014-04-20 13:30:00,
2014-04-20 09:45:00,57.5,55.5,30.13,WNW,294,2.0,5.0,93,0.00,CLR,,0.01,WeatherDisplay:10.37,2014-04-20 13:45:00,
2014-04-20 10:00:00,57.6,55.0,30.13,NW,322,3.0,7.0,91,0.00,CLR,,0.01,WeatherDisplay:10.37,2014-04-20 14:00:00,
2014-04-20 10:15:00,57.8,55.2,30.13,North,9,3.0,8.0,91,0.00,CLR,,0.01,WeatherDisplay:10.37,2014-04-20 14:15:00,
2014-04-20 10:30:00,58.4,55.5,30.13,East,83,5.0,9.0,90,0.00,CLR,,0.01,WeatherDisplay:10.37,2014-04-20 14:30:00,
2014-04-20 10:45:00,58.6,56.0,30.13,ENE,64,1.0,8.0,91,0.00,CLR,,0.01,WeatherDisplay:10.37,2014-04-20 14:45:00,
2014-04-20 11:00:00,58.9,55.7,30.13,North,358,2.0,8.0,89,0.00,CLR,,0.01,WeatherDisplay:10.37,2014-04-20 15:00:00,
2014-04-20 11:15:00,59.3,55.7,30.13,NNW,340,2.0,7.0,88,0.00,CLR,,0.01,WeatherDisplay:10.37,2014-04-20 15:15:00,
2014-04-20 11:30:00,59.5,55.9,30.14,West,265,1.0,7.0,88,0.00,CLR,,0.01,WeatherDisplay:10.37,2014-04-20 15:30:00,
2014-04-20 11:45:00,60.0,56.4,30.14,WNW,297,1.0,5.0,88,0.00,CLR,,0.01,WeatherDisplay:10.37,2014-04-20 15:45:00,
2014-04-20 12:00:00,59.9,56.6,30.14,NE,51,1.0,7.0,89,0.00,CLR,,0.01,WeatherDisplay:10.37,2014-04-20 16:00:00,
2014-04-20 12:15:00,60.3,56.8,30.14,WNW,298,2.0,5.0,88,0.00,CLR,,0.01,WeatherDisplay:10.37,2014-04-20 16:15:00,
2014-04-20 12:30:00,60.9,57.6,30.14,ENE,61,2.0,4.0,89,0.00,CLR,,0.01,WeatherDisplay:10.37,2014-04-20 16:30:00,
2014-04-20 12:45:00,60.9,57.0,30.14,ENE,64,1.0,6.0,87,0.00,CLR,,0.01,WeatherDisplay:10.37,2014-04-20 16:45:00,
2014-04-20 13:00:00,61.1,57.2,30.14,NE,37,2.0,5.0,87,0.00,CLR,,0.01,WeatherDisplay:10.37,2014-04-20 17:00:00,
2014-04-20 13:15:00,61.6,57.4,30.13,West,265,1.0,6.0,86,0.00,CLR,,0.01,WeatherDisplay:10.37,2014-04-20 17:15:00,
2014-04-20 13:30:00,62.2,57.6,30.13,East,82,2.0,7.0,85,0.00,CLR,,0.01,WeatherDisplay:10.37,2014-04-20 17:30:00,
2014-04-20 13:45:00,62.4,57.8,30.13,NW,326,3.0,6.0,85,0.00,CLR,,0.01,WeatherDisplay:10.37,2014-04-20 17:45:00,
2014-04-20 14:00:00,62.5,58.0,30.12,NNE,25,2.0,6.0,85,0.00,CLR,,0.01,WeatherDisplay:10.37,2014-04-20 18:00:00,
2014-04-20 14:15:00,63.1,58.2,30.12,West,259,2.0,8.0,84,0.00,CLR,,0.01,WeatherDisplay:10.37,2014-04-20 18:15:00,
2014-04-20 14:30:00,63.0,58.1,30.12,NW,304,0.0,6.0,84,0.00,CLR,,0.01,WeatherDisplay:10.37,2014-04-20 18:30:00,
2014-04-20 14:45:00,63.3,58.4,30.11,NNE,30,1.0,7.0,84,0.00,CLR,,0.01,WeatherDisplay:10.37,2014-04-20 18:45:00,
2014-04-20 15:00:00,63.4,58.8,30.11,WSW,258,1.0,5.0,85,0.00,CLR,,0.01,WeatherDisplay:10.37,2014-04-20 19:00:00,
2014-04-20 15:15:00,63.8,58.9,30.10,ENE,65,0.0,5.0,84,0.00,CLR,,0.01,WeatherDisplay:10.37,2014-04-20 19:15:00,